Temperature
5 5 5 5 5 5 5 5 4 4 4 4 4 4 4 4 4 4 4 4 4 4 4 4 3 3 3 3 3 3 3 3 3 3 3 3 3 3
5 5 5 5 5 5 4 4 4 3 3 3 4 4 4 3 3 3 3 3 3 3 3 3 3 3 3 3 3 3 3 2 2 2 2 2 2 2
4 4 4 4 4 4 4 4 3 3 3 3 3 3 3 3 3 3 3 2 2 3 2 2 2 2 2 2 2 2 2 2 2 2 2 2 2 2
4 4 4 4 4 3 3 3 3 3 3 3 3 3 2 2 2 2 2 2 2 2 2 2 2 2 2 2 2 2 1 1 1 1 1 1 1 1
4 3 3 3 3 3 3 3 3 2 2 2 2 2 2 2 1 1 1 1 1 1 1 1 1 1 1 1 1 1 1 1 1 1 1 1 1 1
3 3 3 3 3 3 3 2 2 2 2 2 2 1 1 1 1 1 1 1 1 1 1 1 1 1 1 1 1 1 1 1 0 0 0 0 0 0
3 3 3 3 2 2 2 2 2 2 1 1 1 1 1 1 0 0 0 0 0 0 0 0 0 0 0 0 0 0 0 0 0 -0 -0 -0 -0 -0
3 2 2 2 2 2 2 2 2 1 1 1 1 1 0 0 0 -0 -0 -0 -1 -0 -0 -0 -0 -0 -0 -0 -0 -0 -0 -0 -0 -0 -1 -1 -1 -1
2 2 2 2 2 2 1 1 1 1 1 0 0 0 0 -0 -0 -0 -1 -1 -1 -1 -1 -1 -1 -1 -1 -1 -0 -1 -1 -1 -1 -1 -1 -1 -1 -1
2 2 2 2 1 1 1 1 1 1 0 0 -0 -0 -0 -1 -1 -1 -1 -1 -1 -1 -1 -1 -1 -1 -1 -1 -1 -1 -1 -1 -1 -1 -1 -1 -1 -1
1 1 1 1 1 1 0 0 0 0 -0 -0 -0 -0 -1 -1 -1 -1 -2 -2 -2 -2 -2 -2 -2 -2 -2 -1 -1 -1 -1 -1 -1 -2 -2 -2 -2 -2
1 1 0 0 0 0 0 -0 -0 -0 -0 -1 -1 -1 -1 -1 -1 -2 -2 -2 -2 -3 -2 -2 -2 -2 -2 -2 -2 -2 -2 -2 -2 -2 -2 -2 -2 -2
0 0 0 -0 -0 -0 -0 -1 -1 -1 -1 -1 -1 -1 -2 -2 -2 -2 -2 -2 -3 -3 -3 -3 -3 -3 -3 -3 -3 -2 -3 -3 -3 -3 -3 -3 -3 -3
-0 -0 -0 -0 -1 -1 -1 -1 -1 -1 -2 -2 -2 -2 -2 -2 -2 -2 -3 -3 -3 -3 -3 -3 -3 -3 -4 -4 -4 -3 -3 -3 -3 -3 -3 -3 -3 -3
-1 -1 -1 -1 -1 -1 -1 -1 -2 -2 -2 -2 -3 -3 -3 -3 -3 -3 -3 -3 -3 -3 -3 -3 -3 -3 -4 -4 -4 -4 -4 -3 -4 -4 -4 -4 -4 -4
-2 -2 -2 -2 -2 -2 -2 -2 -2 -3 -3 -3 -3 -3 -3 -3 -3 -3 -3 -3 -3 -3 -3 -3 -4 -4 -4 -4 -4 -4 -4 -4 -4 -4 -4 -4 -4 -4
-2 -2 -2 -2 -2 -2 -2 -3 -3 -3 -3 -3 -4 -4 -4 -4 -4 -4 -4 -4 -4 -4 -4 -4 -4 -4 -4 -4 -4 -4 -4 -4 -4 -5 -5 -4 -4 -4
-3 -3 -3 -3 -3 -3 -3 -3 -3 -4 -4 -4 -4 -4 -4 -4 -4 -4 -5 -5 -5 -5 -4 -4 -5 -4 -5 -5 -5 -5 -5 -5 -5 -5 -5 -5 -5 -4
-3 -3 -3 -3 -3 -3 -3 -4 -4 -4 -4 -4 -4 -5 -5 -5 -5 -5 -5 -5 -5 -5 -5 -5 -5 -5 -6 -6 -5 -5 -5 -5 -5 -5 -5 -5 -5 -5
-3 -3 -3 -3 -4 -4 -4 -4 -4 -4 -4 -5 -5 -5 -5 -5 -5 -5 -5 -5 -5 -5 -5 -5 -5 -6 -6 -6 -6 -5 -5 -5 -5 -6 -5 -5 -5 -5
-4 -4 -4 -4 -4 -4 -4 -4 -4 -5 -5 -5 -5 -5 -5 -5 -5 -6 -6 -6 -6 -6 -6 -5 -5 -6 -6 -6 -6 -6 -5 -6 -6 -6 -6 -6 -6 -6
-4 -4 -4 -5 -5 -5 -5 -5 -5 -5 -5 -5 -5 -5 -5 -6 -6 -6 -6 -6 -6 -6 -6 -6 -6 -6 -6 -6 -6 -6 -6 -6 -6 -6 -6 -6 -7 -7
-5 -5 -5 -5 -5 -5 -5 -5 -5 -5 -5 -5 -5 -6 -6 -6 -6 -6 -6 -6 -6 -6 -6 -6 -6 -6 -6 -6 -6 -6 -6 -6 -6 -6 -6 -6 -6 -6
Wind_Speed
6 6 5 4 4 4 4 4 4 4 5 4 3 4 4 4 4 6 6 6 7 8 9 9 9 9 10 11 11 12 12 13 13 14 14 14 15 15
5 6 5 4 4 3 4 4 4 5 5 4 3 4 4 4 5 6 6 7 8 8 9 10 10 10 10 11 12 12 12 13 13 14 15 15 15 15
5 6 6 5 4 4 4 4 4 5 5 4 3 3 4 5 4 5 6 7 7 9 10 10 10 11 11 11 12 12 12 13 13 14 15 15 16 16
6 6 6 5 6 5 4 5 5 5 5 5 4 4 5 5 5 5 6 6 8 9 10 10 11 11 11 11 12 12 13 13 14 15 16 16 16 16
6 6 6 6 6 5 5 5 5 5 5 5 4 4 4 4 4 5 5 6 7 8 9 10 11 11 12 12 12 12 13 14 14 15 15 15 16 16
5 5 6 6 7 6 5 6 5 5 4 4 4 4 3 4 4 4 5 5 6 7 8 9 10 11 11 12 12 13 13 14 14 15 15 15 15 16
5 5 5 5 5 5 5 5 5 5 4 4 4 4 4 3 4 4 5 5 6 5 6 7 8 8 9 10 11 12 13 14 14 15 15 16 16 17
5 4 4 5 5 5 5 5 5 6 5 5 5 5 6 5 4 4 5 6 6 4 6 7 7 7 8 9 11 13 14 14 15 15 16 16 16 17
5 4 3 3 4 4 3 4 4 5 6 6 6 6 6 6 5 6 6 7 7 5 6 7 6 7 8 9 12 13 14 14 15 15 16 16 16 16
4 4 4 4 4 4 3 3 4 4 5 5 5 6 5 5 6 6 7 6 6 5 5 7 7 7 7 9 11 12 13 14 14 15 15 15 15 16
3 3 4 4 5 5 4 4 4 3 3 4 5 5 6 7 6 4 4 5 6 5 4 5 6 7 7 8 8 10 11 12 13 14 14 14 14 15
2 3 4 5 5 5 5 5 5 4 3 3 3 3 4 5 6 5 5 5 5 5 3 4 5 5 5 5 6 7 8 10 12 13 13 14 14 12
2 2 2 4 4 5 5 5 5 4 3 3 3 3 3 3 4 4 4 5 5 5 4 3 5 5 5 6 6 6 7 7 8 10 12 13 13 11
3 3 2 3 3 3 3 3 3 3 2 2 3 3 3 3 4 4 5 6 6 7 7 6 5 6 6 7 7 6 6 7 7 8 9 11 12 13
2 2 2 2 2 2 2 2 2 2 2 3 3 4 3 4 4 4 4 4 5 6 7 8 7 6 6 7 7 7 7 7 7 7 7 8 8 8
2 2 2 1 1 1 1 1 2 2 3 3 3 3 3 3 3 3 4 4 4 5 5 7 7 7 7 8 8 8 7 6 6 7 7 8 8 9
2 2 2 2 1 1 1 1 2 2 2 2 3 3 3 3 3 3 3 4 4 5 5 5 5 7 8 8 8 8 8 8 8 7 8 8 8 8
3 3 3 2 2 2 2 2 2 3 3 3 3 3 3 3 3 3 3 4 5 5 6 5 5 5 5 5 7 8 7 8 7 8 7 8 9 8
3 2 3 3 3 3 3 3 3 3 3 3 3 3 3 3 3 4 4 4 5 5 5 5 5 5 6 7 4 6 7 7 7 7 7 8 9 9
2 3 3 3 3 3 3 3 3 3 3 3 3 3 3 3 4 4 4 5 5 6 6 5 5 5 6 7 7 6 7 7 7 8 8 8 8 10
2 3 3 3 3 3 3 3 3 4 4 3 3 4 4 4 4 4 5 6 6 6 6 6 6 7 6 5 6 7 6 7 8 7 8 8 8 8
3 3 3 3 3 3 3 3 3 4 4 4 4 4 4 4 5 5 5 5 5 6 7 6 5 5 5 6 7 8 9 7 8 10 10 9 6 6
3 3 3 3 3 3 3 4 4 4 4 4 4 4 4 4 5 5 5 5 5 6 6 6 6 5 5 6 7 8 9 9 7 7 7 9 11 13
Wind_Direction
208 211 213 214 217 215 214 218 225 239 241 236 239 235 242 254 258 267 270 271 276 279 281 283 286 287 288 290 291 293 293 293 291 290 289 289 290 290
204 208 212 214 215 214 217 224 236 244 247 244 252 258 242 254 259 267 269 272 269 271 274 277 279 283 285 286 288 290 291 291 291 290 287 287 288 289
204 209 214 213 213 213 216 222 231 239 246 260 262 263 252 253 257 265 272 270 268 267 271 273 275 279 282 283 285 287 288 289 291 290 288 287 288 288
208 212 216 211 216 217 219 227 232 238 244 252 261 268 259 253 258 266 272 274 273 270 271 273 275 278 280 281 283 285 287 287 287 288 287 286 287 288
208 213 217 213 217 220 224 230 232 236 241 244 254 267 265 256 264 272 273 274 278 274 269 269 274 276 276 277 279 281 284 285 286 286 286 286 286 286
210 214 222 222 223 221 223 227 228 232 237 241 247 260 265 266 263 270 278 279 279 277 271 273 275 274 271 272 274 277 281 284 285 286 285 284 284 285
207 213 218 217 222 224 223 226 226 228 233 240 244 258 261 259 261 269 273 282 282 276 277 277 276 275 272 270 272 277 280 283 284 284 285 285 285 285
206 208 208 204 207 215 223 231 235 230 227 241 251 248 259 265 269 267 270 279 282 278 280 282 279 278 276 273 277 281 282 283 284 285 287 287 286 285
202 203 204 204 207 212 215 227 244 250 245 247 251 256 263 262 261 263 263 267 278 284 282 281 281 280 280 276 278 279 280 281 284 287 288 286 285 284
205 206 209 210 208 210 219 235 248 255 256 254 256 263 268 266 262 264 264 276 285 278 274 278 287 286 288 281 276 276 280 284 287 289 289 286 286 287
211 212 215 218 206 212 221 231 244 259 265 261 265 270 274 270 266 264 260 266 277 280 279 276 287 294 291 285 279 279 281 284 287 290 292 290 290 289
212 216 216 221 218 223 229 230 238 253 260 267 270 274 269 261 258 252 248 253 270 277 274 272 286 296 289 283 289 291 289 286 288 289 291 293 295 292
215 227 222 210 230 237 243 243 247 262 263 261 270 277 277 267 261 261 256 250 258 265 269 276 280 284 281 289 293 292 290 292 293 290 290 293 294 291
225 231 226 219 236 247 249 245 256 270 261 261 269 275 275 276 277 278 275 271 269 267 267 268 271 274 282 287 291 296 294 292 292 292 293 294 292 289
243 238 235 235 236 238 230 249 259 256 253 256 261 270 274 279 285 290 293 291 287 279 271 268 266 269 271 275 282 289 295 295 291 292 295 294 292 290
238 220 207 215 238 241 240 249 257 258 258 258 263 274 283 284 283 289 291 295 292 290 282 273 267 266 269 271 274 279 284 285 292 294 295 293 290 285
212 208 208 212 222 231 248 264 265 258 262 265 268 277 281 284 287 288 286 287 284 290 295 299 289 279 269 269 273 274 280 284 286 292 295 294 292 288
213 211 220 225 229 237 244 254 259 259 262 264 264 264 267 272 282 286 283 278 279 286 291 297 301 298 284 262 245 268 278 284 290 292 291 292 292 293
216 221 230 231 236 243 247 252 258 264 262 255 255 258 261 267 274 278 278 278 280 285 290 293 291 290 296 299 280 235 272 288 292 293 290 289 289 295
229 229 235 237 239 240 244 249 254 255 255 256 257 258 258 261 266 271 272 277 280 285 289 288 284 283 282 288 291 289 269 275 286 288 292 292 290 292
240 241 242 242 243 244 244 245 246 247 248 251 254 256 256 257 261 265 270 278 279 281 284 287 290 290 283 278 279 283 288 274 270 278 290 293 296 299
247 249 250 251 249 248 248 245 246 246 245 247 251 253 253 254 259 264 267 272 277 280 285 289 295 292 282 277 282 290 298 303 294 281 275 272 282 289
252 252 251 251 250 247 246 243 243 247 247 247 249 251 253 258 262 264 267 271 276 281 287 292 295 292 285 278 284 290 297 304 306 306 295 289 282 281
Height
1505 1506 1507 1508 1510 1510 1511 1512 1513 1512 1512 1512 1512 1512 1512 1512 1512 1511 1511 1511 1510 1510 1509 1508 1507 1506 1505 1504 1503 1502 1500 1499 1498 1496 1495 1494 1493 1492
1501 1502 1503 1504 1505 1506 1507 1508 1509 1509 1508 1507 1507 1507 1507 1507 1507 1507 1507 1506 1505 1505 1504 1503 1502 1501 1500 1499 1497 1496 1495 1494 1492 1491 1490 1488 1487 1486
1497 1498 1499 1500 1501 1502 1503 1503 1504 1505 1504 1503 1503 1503 1503 1503 1502 1502 1502 1501 1501 1500 1499 1498 1497 1496 1494 1493 1492 1491 1489 1488 1487 1485 1484 1483 1481 1480
1493 1494 1495 1496 1497 1498 1498 1499 1500 1500 1500 1499 1498 1498 1498 1498 1498 1498 1497 1497 1496 1495 1494 1493 1491 1490 1489 1488 1486 1485 1484 1482 1481 1480 1478 1477 1475 1474
1489 1490 1491 1492 1492 1493 1493 1494 1495 1495 1496 1495 1494 1494 1494 1493 1493 1493 1493 1492 1491 1490 1489 1488 1486 1485 1484 1482 1481 1479 1478 1477 1475 1473 1472 1471 1469 1468
1484 1485 1486 1487 1488 1488 1489 1490 1491 1491 1491 1491 1490 1490 1490 1489 1489 1489 1488 1487 1487 1486 1484 1483 1481 1480 1478 1477 1476 1474 1472 1471 1469 1468 1466 1464 1463 1461
1480 1481 1482 1483 1483 1484 1485 1486 1486 1486 1486 1486 1486 1486 1485 1485 1485 1485 1484 1482 1481 1481 1479 1478 1476 1475 1473 1471 1470 1468 1467 1465 1463 1461 1460 1458 1456 1455
1476 1477 1478 1479 1480 1481 1481 1482 1482 1482 1482 1482 1482 1482 1481 1481 1481 1481 1479 1478 1476 1476 1474 1472 1471 1469 1468 1466 1464 1462 1461 1459 1457 1455 1453 1451 1450 1448
1473 1474 1475 1476 1477 1477 1477 1478 1478 1479 1479 1479 1478 1478 1478 1478 1477 1476 1475 1474 1472 1471 1470 1466 1466 1464 1462 1460 1459 1457 1455 1453 1451 1449 1447 1444 1442 1441
1470 1471 1472 1472 1473 1474 1474 1474 1474 1475 1475 1475 1475 1474 1474 1474 1473 1472 1470 1469 1467 1466 1465 1462 1460 1459 1457 1454 1453 1451 1449 1447 1445 1442 1440 1438 1436 1434
1467 1468 1469 1469 1470 1471 1471 1471 1470 1471 1471 1471 1470 1470 1469 1469 1468 1467 1465 1464 1462 1461 1460 1458 1455 1453 1451 1449 1447 1445 1443 1441 1439 1437 1434 1432 1430 1427
1464 1465 1466 1466 1467 1467 1467 1467 1467 1467 1467 1466 1466 1465 1465 1464 1464 1463 1461 1460 1457 1456 1455 1454 1451 1449 1446 1443 1442 1440 1438 1436 1433 1431 1429 1426 1424 1421
1461 1461 1462 1463 1463 1464 1464 1464 1464 1463 1463 1462 1462 1461 1460 1460 1459 1458 1457 1455 1454 1452 1451 1450 1447 1445 1443 1438 1436 1435 1433 1431 1428 1426 1423 1421 1419 1416
1458 1458 1459 1460 1460 1460 1460 1460 1460 1460 1459 1458 1458 1457 1456 1455 1455 1454 1452 1451 1449 1448 1446 1445 1443 1441 1438 1435 1432 1430 1428 1426 1424 1421 1418 1416 1413 1411
1455 1455 1456 1456 1456 1456 1456 1456 1456 1456 1455 1455 1454 1453 1453 1452 1450 1449 1448 1446 1445 1444 1442 1441 1439 1437 1435 1432 1429 1426 1424 1421 1419 1417 1414 1411 1408 1405
1452 1452 1452 1453 1453 1453 1453 1453 1452 1452 1452 1451 1450 1449 1449 1448 1446 1445 1444 1442 1440 1439 1438 1437 1435 1433 1430 1428 1426 1422 1420 1418 1415 1413 1409 1406 1403 1401
1448 1448 1449 1449 1449 1449 1449 1449 1449 1449 1448 1447 1447 1446 1445 1444 1443 1441 1440 1439 1437 1435 1433 1432 1431 1429 1427 1425 1422 1419 1416 1414 1412 1409 1405 1401 1398 1396
1445 1445 1445 1445 1445 1445 1445 1445 1445 1445 1444 1444 1443 1442 1441 1440 1439 1438 1437 1435 1434 1432 1430 1428 1427 1424 1423 1420 1419 1415 1413 1410 1408 1405 1401 1397 1393 1391
1442 1442 1442 1442 1442 1442 1442 1442 1442 1442 1441 1441 1440 1439 1438 1437 1436 1435 1433 1432 1430 1429 1427 1425 1423 1421 1419 1416 1414 1413 1410 1406 1403 1400 1397 1394 1390 1386
1438 1438 1438 1438 1438 1438 1438 1438 1438 1438 1437 1437 1436 1436 1435 1434 1433 1432 1430 1429 1427 1425 1423 1422 1420 1418 1416 1414 1410 1408 1406 1403 1400 1396 1393 1390 1386 1383
1435 1435 1435 1435 1435 1435 1435 1434 1434 1434 1434 1433 1433 1432 1431 1430 1429 1428 1427 1426 1424 1422 1420 1418 1417 1416 1413 1410 1407 1403 1402 1400 1397 1393 1389 1386 1381 1378
1432 1432 1432 1432 1431 1431 1431 1431 1430 1430 1430 1430 1429 1429 1428 1427 1426 1425 1424 1422 1421 1419 1417 1415 1413 1412 1409 1407 1403 1400 1397 1395 1393 1390 1387 1384 1380 1375
1428 1428 1428 1428 1428 1428 1427 1427 1427 1427 1426 1426 1426 1425 1424 1423 1422 1421 1420 1419 1417 1415 1414 1412 1410 1408 1406 1403 1400 1397 1394 1391 1388 1385 1383 1380 1378 1375